Location: Alafon
(8.4500°N, 4.2333°E)
Time: 18:19:24
(UTC+00:00)

A-11 Canister half - Pass Details

Date: 09 August 2021
Orbit: 1515 x 1685 km, 47.2° (Epoch: 19 September)

Event Time Altitude Azimuth Distance (km) Brightness Sun altitude
Rises 11:31:12 0° 216° (SW) 4,650 11.4 81.6°
Reaches altitude 10° 11:34:13 10° 214° (SW) 3,671 11.0 81.9°
Maximum altitude 11:43:27 76° 129° (SE) 1,572 10.9 82.6°
Drops below altitude 10° 11:52:55 10° 45° (NE) 3,760 11.3 82.7°
Sets 11:56:02 0° 44° (NE) 4,767 11.6 82.5°
